Flood From: 22-02-2018 06:00 Until: 23-02-2018 06:00 warning for: Flood Level: Yellow info button

Although rather usual in this region, locally or potentially dangerous phenomena are expected. (such as local winds, summer thunderstorms, rising streams or high waves) Be aware and pay attention to the latest weather updates, especially if you carry out activities exposed to weather or close to a stream or shoreline. 


Meteo18 Weather Cam more information Meteo18 Weather Cam


Thunder radar more information blitzortung!


Rain radar more information rain snow radar


Visit our other weather sites:

Template documentation
and downloads

And another site



Weather Underground History page Text

Daily Summary for January 3, 2018 Units:  Metric    English   Both
« Previous Day
Next Day »
Daily Weekly Monthly Yearly Custom
  High: Low: Average:
Temperature: -17.8 °C -13.2 °C -11.9 °C
Dew Point: -17.8 °C -14.8 °C -13.1 °C
Humidity: Humidity % 72 % 86 %
Wind Speed: 0 km/h 7.6 km/h 35.1 km/h
Wind Gust: 0 km/h - -
Wind:- - WSW
Pressure: 0 hPa 34029.3 hPa -
Precipitation: 271.78 mm    
Historical Graphs
 
 
Tabular Data for January 3, 2018
Time Temperature Dew Point Pressure Wind Wind Speed Wind Gust Humidity Rainfall Rate (Hourly)
-17.8 °C -17.8 °C 0 hPa Calm     Humidity % 0 mm
00:03 -11.3 °C -11.7 °C 34303.6 hPa WSW 26.2 km/h 38.8 km/h 95 % 0 mm
00:09 -11.3 °C -11.7 °C 34293.4 hPa SW 12.7 km/h 44.1 km/h 95 % 0 mm
00:15 -11.3 °C -11.8 °C 34293.4 hPa West 26.2 km/h 49.2 km/h 94 % 0 mm
00:17 -11.3 °C -11.8 °C 34293.4 hPa SW 33.6 km/h 38.8 km/h 94 % 0 mm
00:23 -11.3 °C -11.8 °C 34279.9 hPa West 26.2 km/h 51.8 km/h 95 % 0 mm
00:29 -11.3 °C -11.8 °C 34279.9 hPa SSW 26.2 km/h 44.1 km/h 94 % 0 mm
00:35 -11.3 °C -11.8 °C 34279.9 hPa SW 26.2 km/h 36.2 km/h 94 % 0 mm
00:39 -11.3 °C -11.8 °C 34269.7 hPa SW 38.8 km/h 51.8 km/h 94 % 0 mm
00:45 -11.2 °C -11.8 °C 34269.7 hPa WSW 38.8 km/h 57 km/h 93 % 0 mm
00:51 -11.2 °C -11.7 °C 34279.9 hPa WSW 46.3 km/h 69.8 km/h 94 % 0 mm
00:57 -11.2 °C -11.7 °C 34279.9 hPa WSW 33.6 km/h 46.7 km/h 94 % 0 mm
01:01 -11.2 °C -11.7 °C 34279.9 hPa West 41.7 km/h 44.1 km/h 94 % 0 mm
01:07 -11.3 °C -11.8 °C 34269.7 hPa West 44.1 km/h 59.5 km/h 94 % 0 mm
01:13 -11.3 °C -11.8 °C 34256.2 hPa SSW 49.2 km/h 72.6 km/h 94 % 0 mm
01:19 -11.2 °C -11.7 °C 34256.2 hPa SW 33.6 km/h 54.4 km/h 94 % 0 mm
01:31 -11.2 °C -11.7 °C 34256.2 hPa SW 26.2 km/h 57 km/h 94 % 0 mm
01:37 -11.2 °C -11.7 °C 34246 hPa SW 36.5 km/h 69.8 km/h 94 % 0 mm
01:43 -11.2 °C -11.7 °C 34235.8 hPa SSW 26.2 km/h 49.2 km/h 94 % 0 mm
01:49 -11.3 °C -11.8 °C 34235.8 hPa SW 38.8 km/h 64.7 km/h 94 % 0 mm
02:01 -11.3 °C -11.8 °C 34222.3 hPa SW 26.2 km/h 59.5 km/h 95 % 0 mm
02:13 -11.3 °C -11.6 °C 34212.1 hPa SW 44.1 km/h 51.8 km/h 96 % 0 mm
02:19 -11.3 °C -11.6 °C 34198.6 hPa WSW 33.6 km/h 72.6 km/h 96 % 0 mm
02:25 -11.3 °C -11.6 °C 34198.6 hPa West 54.4 km/h 72.6 km/h 96 % 0 mm
02:31 -11.2 °C -11.6 °C 34188.4 hPa SW 41.7 km/h 54.4 km/h 96 % 0 mm
02:35 -11.2 °C -11.6 °C 34188.4 hPa West 36.5 km/h 67.3 km/h 96 % 0 mm
02:41 -11.2 °C -11.6 °C 34178.3 hPa SW 36.5 km/h 69.8 km/h 95 % 0 mm
02:47 -11.1 °C -11.5 °C 34178.3 hPa West 41.7 km/h 64.7 km/h 95 % 0 mm
02:53 -11.1 °C -11.5 °C 34164.7 hPa SW 33.6 km/h 64.7 km/h 95 % 0 mm
02:59 -11 °C -11.4 °C 34164.7 hPa SW 33.6 km/h 64.7 km/h 95 % 7.62 mm
03:11 -10.9 °C -11.4 °C 34164.7 hPa WSW 62 km/h 75.2 km/h 95 % 7.62 mm
03:17 -10.9 °C -11.4 °C 34154.6 hPa West 49.2 km/h 57 km/h 95 % 7.62 mm
03:23 -10.9 °C -11.4 °C 34144.4 hPa WSW 85.8 km/h 93.2 km/h 95 % 7.62 mm
03:27 -10.9 °C -11.3 °C 34144.4 hPa West 36.5 km/h 59.5 km/h 95 % 7.62 mm
03:39 -10.9 °C -11.3 °C 34144.4 hPa SW 54.4 km/h 67.3 km/h 95 % 12.7 mm
03:45 -10.9 °C -11.3 °C 34144.4 hPa South 26.2 km/h 64.7 km/h 95 % 12.7 mm
03:51 -10.9 °C -11.3 °C 34144.4 hPa West 49.2 km/h 95.8 km/h 95 % 12.7 mm
03:57 -10.9 °C -11.2 °C 34130.9 hPa WSW 44.1 km/h 69.8 km/h 96 % 12.7 mm
04:03 -10.8 °C -11.2 °C 34120.7 hPa West 31.4 km/h 54.4 km/h 96 % 7.62 mm
04:09 -10.8 °C -11.2 °C 34107.2 hPa SW 65 km/h 77.7 km/h 95 % 7.62 mm
04:17 -10.8 °C -11.2 °C 34097 hPa SW 38.8 km/h 69.8 km/h 95 % 12.7 mm
04:23 -10.7 °C -11.2 °C 34097 hPa WSW 28.5 km/h 80.3 km/h 95 % 12.7 mm
04:29 -10.7 °C -11.2 °C 34097 hPa SW 54.4 km/h 80.3 km/h 95 % 12.7 mm
04:35 -10.7 °C -11.2 °C 34086.9 hPa SW 44.1 km/h 69.8 km/h 95 % 12.7 mm
04:47 -10.7 °C -11.1 °C 34073.3 hPa SW 51.5 km/h 75.2 km/h 95 % 12.7 mm
04:53 -10.7 °C -11.1 °C 34073.3 hPa WSW 59.5 km/h 95.8 km/h 95 % 12.7 mm
04:59 -10.7 °C -11.1 °C 34073.3 hPa WSW 49.2 km/h 75.2 km/h 95 % 20.32 mm
05:05 -10.6 °C -11.1 °C 34073.3 hPa SW 51.5 km/h 62.1 km/h 95 % 20.32 mm
05:11 -10.6 °C -11.1 °C 34073.3 hPa SW 23 km/h 69.8 km/h 95 % 25.4 mm
05:17 -10.6 °C -11.1 °C 34073.3 hPa WSW 72.6 km/h 72.6 km/h 95 % 20.32 mm
05:23 -10.6 °C -11 °C 34063.2 hPa SW 51.5 km/h 75.2 km/h 95 % 12.7 mm
05:29 -10.6 °C -11 °C 34049.6 hPa West 41.7 km/h 62.1 km/h 95 % 20.32 mm
05:35 -10.5 °C -10.9 °C 34049.6 hPa WSW 46.3 km/h 64.7 km/h 95 % 20.32 mm
05:41 -10.5 °C -10.9 °C 34049.6 hPa SW 38.8 km/h 62.1 km/h 95 % 12.7 mm
05:47 -10.5 °C -10.9 °C 34039.5 hPa SW 38.8 km/h 82.9 km/h 95 % 12.7 mm
05:53 -10.4 °C -10.9 °C 34029.3 hPa WSW 65 km/h 90.6 km/h 95 % 20.32 mm
06:05 -10.3 °C -10.8 °C 34029.3 hPa SW 62 km/h 90.6 km/h 94 % 12.7 mm
06:11 -10.2 °C -10.9 °C 34029.3 hPa WSW 46.3 km/h 98.3 km/h 92 % 12.7 mm
06:17 -10.2 °C -10.8 °C 34039.5 hPa SW 28.5 km/h 62.1 km/h 93 % 12.7 mm
06:23 -10.3 °C -10.8 °C 34029.3 hPa SW 38.8 km/h 80.3 km/h 94 % 12.7 mm
06:35 -10.3 °C -10.8 °C 34039.5 hPa SW 56.6 km/h 103.6 km/h 94 % 20.32 mm
06:41 -10.3 °C -10.8 °C 34049.6 hPa NW 38.8 km/h 72.6 km/h 94 % 20.32 mm
06:47 -10.2 °C -10.9 °C 34039.5 hPa West 44.1 km/h 72.6 km/h 91 % 25.4 mm
06:53 -10.2 °C -10.9 °C 34049.6 hPa West 62 km/h 80.3 km/h 92 % 20.32 mm
06:59 -10.2 °C -11.2 °C 34039.5 hPa West 72.6 km/h 95.8 km/h 89 % 20.32 mm
07:05 -10.2 °C -11.7 °C 34029.3 hPa West 85.8 km/h 103.6 km/h 84 % 20.32 mm
07:11 -10.2 °C -11.9 °C 34039.5 hPa WSW 75.3 km/h 101.1 km/h 82 % 25.4 mm
07:17 -10.4 °C -12.2 °C 34039.5 hPa West 62 km/h 95.8 km/h 81 % 25.4 mm
07:23 -10.4 °C -12.2 °C 34049.6 hPa West 82.9 km/h 95.8 km/h 81 % 20.32 mm
07:29 -10.6 °C -12.4 °C 34073.3 hPa West 56.6 km/h 75.2 km/h 81 % 12.7 mm
07:35 -10.6 °C -12.6 °C 34073.3 hPa WSW 65 km/h 103.6 km/h 79 % 12.7 mm
07:47 -10.7 °C -12.8 °C 34086.9 hPa West 54.4 km/h 88 km/h 77 % 7.62 mm
07:53 -10.6 °C -12.9 °C 34097 hPa WSW 56.6 km/h 111.4 km/h 76 % 7.62 mm
07:59 -10.7 °C -12.8 °C 34107.2 hPa West 62 km/h 82.9 km/h 77 % 7.62 mm
08:07 -10.7 °C -12.9 °C 34107.2 hPa WSW 56.6 km/h 67.3 km/h 77 % 7.62 mm
08:13 -10.7 °C -13.2 °C 34120.7 hPa WSW 72.6 km/h 88 km/h 74 % 0 mm
08:19 -10.8 °C -13.3 °C 34107.2 hPa West 46.3 km/h 85.5 km/h 74 % 0 mm
08:27 -11.1 °C -12.9 °C 34120.7 hPa WSW 31.4 km/h 59.5 km/h 80 % 0 mm
08:32 -11.2 °C -12.8 °C 34107.2 hPa West 41.7 km/h 69.8 km/h 82 % 0 mm
08:43 -11.2 °C -13.1 °C 34120.7 hPa WSW 41.7 km/h 59.5 km/h 80 % 0 mm
08:49 -11.2 °C -13.2 °C 34144.4 hPa WSW 80.5 km/h 93.2 km/h 78 % 0 mm
08:55 -11.2 °C -13.2 °C 34144.4 hPa WSW 54.4 km/h 82.9 km/h 78 % 0 mm
09:06 -11.2 °C -13.4 °C 34144.4 hPa West 41.7 km/h 88 km/h 77 % 0 mm
09:12 -11.3 °C -13.3 °C 34154.6 hPa West 62 km/h 90.6 km/h 79 % 0 mm
09:30 -11.9 °C -13.2 °C 34164.7 hPa WNW 31.4 km/h 54.4 km/h 86 % 12.7 mm
09:36 -12.1 °C -13.1 °C 34164.7 hPa West 41.7 km/h 49.2 km/h 88 % 25.4 mm
09:52 -12.2 °C -13.4 °C 34198.6 hPa West 56.6 km/h 88 km/h 86 % 71.12 mm
09:58 -12.3 °C -13.7 °C 34198.6 hPa WNW 46.3 km/h 75.2 km/h 84 % 71.12 mm
10:04 -12.3 °C -13.8 °C 34212.1 hPa WSW 54.4 km/h 85.5 km/h 84 % 76.2 mm
10:06 -12.3 °C -13.8 °C 34198.6 hPa WSW 36.5 km/h 85.5 km/h 84 % 76.2 mm
10:12 -12.3 °C -13.7 °C 34212.1 hPa West 23 km/h 67.3 km/h 84 % 76.2 mm
10:30 -12.1 °C -14.1 °C 34222.3 hPa West 33.6 km/h 62.1 km/h 78 % 58.42 mm
10:36 -12.1 °C -14 °C 34246 hPa West 38.8 km/h 57 km/h 79 % 58.42 mm
10:42 -12.1 °C -14.1 °C 34256.2 hPa WNW 54.4 km/h 57 km/h 79 % 38.1 mm
10:46 -12.1 °C -14.2 °C 34256.2 hPa WSW 31.4 km/h 75.2 km/h 78 % 20.32 mm
10:52 -12.1 °C -13.9 °C 34246 hPa WSW 36.5 km/h 57 km/h 80 % 12.7 mm
10:58 -12.1 °C -13.9 °C 34256.2 hPa WNW 31.4 km/h 46.7 km/h 80 % 12.7 mm
11:04 -12.1 °C -13.9 °C 34269.7 hPa WSW 36.5 km/h 64.7 km/h 80 % 7.62 mm
11:10 -12.2 °C -13.8 °C 34279.9 hPa West 38.8 km/h 54.4 km/h 83 % 7.62 mm
11:20 -12.3 °C -14.2 °C 34279.9 hPa WNW 49.2 km/h 93.2 km/h 79 % 7.62 mm
11:26 -12.4 °C -14.2 °C 34279.9 hPa West 56.6 km/h 64.7 km/h 81 % 7.62 mm
11:32 -12.4 °C -14.3 °C 34279.9 hPa West 41.7 km/h 69.8 km/h 79 % 7.62 mm
11:38 -12.3 °C -14.4 °C 34293.4 hPa West 33.6 km/h 77.7 km/h 77 % 0 mm
11:44 -12.3 °C -14.4 °C 34303.6 hPa West 36.5 km/h 67.3 km/h 78 % 0 mm
11:46 -12.3 °C -14.4 °C 34293.4 hPa WSW 46.3 km/h 49.2 km/h 77 % 0 mm
11:50 -12.2 °C -14.4 °C 34293.4 hPa WNW 56.6 km/h 82.9 km/h 76 % 0 mm
11:56 -12.1 °C -14.4 °C 34293.4 hPa WNW 33.6 km/h 75.2 km/h 75 % 0 mm
12:02 -12.2 °C -14.5 °C 34293.4 hPa WNW 44.1 km/h 51.8 km/h 75 % 0 mm
12:18 -12.3 °C -14.2 °C 34293.4 hPa West 36.5 km/h 57 km/h 80 % 0 mm
12:24 -12.4 °C -14.1 °C 34303.6 hPa SW 44.1 km/h 54.4 km/h 82 % 0 mm
12:30 -12.5 °C -14 °C 34303.6 hPa West 33.6 km/h 62.1 km/h 83 % 0 mm
12:46 -12.4 °C -13.9 °C 34313.7 hPa WSW 17.9 km/h 46.7 km/h 83 % 0 mm
12:52 -12.4 °C -13.9 °C 34327.3 hPa West 17.9 km/h 41.4 km/h 83 % 0 mm
12:58 -12.4 °C -14.1 °C 34313.7 hPa WSW 36.5 km/h 49.2 km/h 81 % 0 mm
13:04 -12.3 °C -14.3 °C 34303.6 hPa West 36.5 km/h 67.3 km/h 79 % 0 mm
13:10 -12.3 °C -14.3 °C 34303.6 hPa West 33.6 km/h 59.5 km/h 78 % 0 mm
13:16 -12.2 °C -14.3 °C 34313.7 hPa West 41.7 km/h 57 km/h 77 % 0 mm
13:27 -12.2 °C -14.4 °C 34303.6 hPa West 41.7 km/h 59.5 km/h 76 % 0 mm
13:34 -12.2 °C -14.5 °C 34303.6 hPa West 41.7 km/h 72.6 km/h 75 % 0 mm
13:46 -12.1 °C -14.3 °C 34313.7 hPa West 23 km/h 36.2 km/h 76 % 0 mm
13:52 -12.1 °C -14.6 °C 34303.6 hPa WNW 44.1 km/h 49.2 km/h 74 % 0 mm
14:04 -12.1 °C -14.5 °C 34303.6 hPa West 31.4 km/h 64.7 km/h 74 % 0 mm
14:06 -12.1 °C -14.5 °C 34313.7 hPa WNW 28.5 km/h 67.3 km/h 74 % 0 mm
14:12 -12.1 °C -14.4 °C 34313.7 hPa West 46.3 km/h 54.4 km/h 75 % 0 mm
14:28 -12.1 °C -14.7 °C 34313.7 hPa West 28.5 km/h 54.4 km/h 72 % 0 mm
14:34 -12 °C -14.7 °C 34313.7 hPa West 31.4 km/h 41.4 km/h 72 % 0 mm
14:40 -12 °C -14.7 °C 34313.7 hPa WNW 51.5 km/h 54.4 km/h 72 % 0 mm
14:52 -12.1 °C -14.5 °C 34327.3 hPa West 28.5 km/h 38.8 km/h 74 % 0 mm
15:16 -12.1 °C -14.6 °C 34313.7 hPa West 20.9 km/h 41.4 km/h 74 % 0 mm
15:22 -12.2 °C -14.6 °C 34313.7 hPa WSW 33.6 km/h 49.2 km/h 74 % 0 mm
15:24 -12.2 °C -14.6 °C 34313.7 hPa WSW 20.9 km/h 44.1 km/h 74 % 0 mm
15:30 -12.2 °C -14.4 °C 34327.3 hPa West 20.9 km/h 36.2 km/h 76 % 0 mm
15:36 -12.3 °C -14.4 °C 34337.4 hPa West 41.7 km/h 41.7 km/h 77 % 0 mm
15:42 -12.3 °C -14.4 °C 34337.4 hPa West 20.9 km/h 31.1 km/h 77 % 0 mm
15:54 -12.3 °C -14.4 °C 34337.4 hPa WSW 10.3 km/h 28.5 km/h 77 % 0 mm
16:06 -12.3 °C -14.8 °C 34337.4 hPa WNW 41.7 km/h 41.7 km/h 74 % 0 mm
16:12 -12.4 °C -14.7 °C 34337.4 hPa WNW 31.4 km/h 38.8 km/h 75 % 0 mm
16:22 -12.4 °C -14.7 °C 34337.4 hPa West 20.9 km/h 36.2 km/h 75 % 0 mm
16:28 -12.4 °C -14.6 °C 34347.6 hPa West 17.9 km/h 25.9 km/h 76 % 0 mm
16:34 -12.4 °C -14.7 °C 34347.6 hPa SW 12.7 km/h 28.5 km/h 76 % 0 mm
16:40 -12.5 °C -14.6 °C 34347.6 hPa West 17.9 km/h 41.4 km/h 77 % 0 mm
16:46 -12.6 °C -14.6 °C 34347.6 hPa West 20.9 km/h 31.1 km/h 78 % 0 mm
16:52 -12.6 °C -14.6 °C 34347.6 hPa WSW 33.6 km/h 62.1 km/h 78 % 0 mm
16:58 -12.7 °C -14.6 °C 34347.6 hPa WSW 20.9 km/h 36.2 km/h 79 % 0 mm
17:00 -12.7 °C -14.6 °C 34347.6 hPa West 31.4 km/h 38.8 km/h 79 % 0 mm
17:06 -12.8 °C -14.6 °C 34361.1 hPa West 20.9 km/h 36.2 km/h 80 % 0 mm
17:18 -12.8 °C -14.4 °C 34361.1 hPa West 12.7 km/h 36.2 km/h 82 % 0 mm
17:24 -12.8 °C -14.4 °C 34361.1 hPa West 17.9 km/h 36.2 km/h 82 % 0 mm
17:38 -12.8 °C -14.4 °C 34361.1 hPa WSW 26.2 km/h 31.1 km/h 82 % 0 mm
17:44 -12.8 °C -14.6 °C 34361.1 hPa West 12.7 km/h 25.9 km/h 81 % 0 mm
17:58 -12.8 °C -14.6 °C 34361.1 hPa SW 26.2 km/h 31.1 km/h 81 % 0 mm
18:10 -12.8 °C -14.4 °C 34347.6 hPa SW 26.2 km/h 41.4 km/h 82 % 0 mm
18:14 -12.8 °C -14.4 °C 34347.6 hPa SW 20.9 km/h 33.6 km/h 82 % 0 mm
18:20 -12.8 °C -14.3 °C 34347.6 hPa West 15.6 km/h 28.5 km/h 83 % 0 mm
18:26 -12.8 °C -14.3 °C 34347.6 hPa SW 20.9 km/h 31.1 km/h 84 % 0 mm
18:33 -12.8 °C -14.3 °C 34347.6 hPa SW 20.9 km/h 31.1 km/h 84 % 0 mm
18:43 -12.8 °C -14.2 °C 34347.6 hPa SW 28.5 km/h 41.4 km/h 85 % 0 mm
18:49 -12.8 °C -14.1 °C 34347.6 hPa West 23 km/h 36.2 km/h 86 % 0 mm
19:01 -12.8 °C -14.1 °C 34361.1 hPa West 17.9 km/h 28.5 km/h 86 % 0 mm
19:07 -12.8 °C -14.1 °C 34347.6 hPa West 20.9 km/h 31.1 km/h 86 % 0 mm
19:11 -12.8 °C -14.1 °C 34347.6 hPa WSW 20.9 km/h 31.1 km/h 86 % 0 mm
19:17 -12.8 °C -14 °C 34347.6 hPa West 17.9 km/h 33.6 km/h 86 % 0 mm
19:25 -12.7 °C -13.9 °C 34347.6 hPa WSW 20.9 km/h 38.8 km/h 86 % 0 mm
19:31 -12.7 °C -13.9 °C 34347.6 hPa WSW 12.7 km/h 28.5 km/h 86 % 0 mm
19:33 -12.7 °C -13.9 °C 34347.6 hPa WSW 10.3 km/h 25.9 km/h 86 % 0 mm
19:45 -12.8 °C -13.9 °C 34361.1 hPa WSW 10.3 km/h 28.5 km/h 88 % 0 mm
19:51 -12.8 °C -13.9 °C 34347.6 hPa SW 15.6 km/h 28.5 km/h 88 % 0 mm
19:55 -12.8 °C -13.8 °C 34347.6 hPa WSW 23 km/h 33.6 km/h 89 % 0 mm
20:01 -12.8 °C -13.8 °C 34347.6 hPa SW 10.3 km/h 31.1 km/h 89 % 0 mm
20:13 -12.9 °C -13.8 °C 34347.6 hPa WSW 15.6 km/h 28.5 km/h 90 % 0 mm
20:19 -12.9 °C -13.8 °C 34347.6 hPa SW 7.6 km/h 18.2 km/h 90 % 0 mm
20:25 -12.9 °C -13.8 °C 34347.6 hPa SW 17.9 km/h 23.3 km/h 90 % 0 mm
20:31 -12.9 °C -13.7 °C 34347.6 hPa WSW 26.2 km/h 28.5 km/h 91 % 0 mm
20:43 -12.8 °C -13.6 °C 34347.6 hPa West 15.6 km/h 41.4 km/h 91 % 0 mm
20:47 -12.8 °C -13.6 °C 34347.6 hPa SSW 20.9 km/h 28.5 km/h 91 % 0 mm
20:53 -12.9 °C -13.6 °C 34347.6 hPa SW 28.5 km/h 36.2 km/h 92 % 0 mm
20:59 -12.9 °C -13.6 °C 34347.6 hPa SW 7.6 km/h 20.8 km/h 92 % 0 mm
21:05 -12.9 °C -13.6 °C 34337.4 hPa WSW 17.9 km/h 25.9 km/h 93 % 7.62 mm
21:15 -12.9 °C -13.6 °C 34327.3 hPa WSW 7.6 km/h 25.9 km/h 93 % 7.62 mm
21:21 -12.9 °C -13.6 °C 34327.3 hPa SW 20.9 km/h 31.1 km/h 93 % 12.7 mm
21:27 -12.9 °C -13.6 °C 34327.3 hPa SW 26.2 km/h 38.8 km/h 93 % 12.7 mm
21:35 -13 °C -13.6 °C 34327.3 hPa SW 17.9 km/h 36.2 km/h 93 % 12.7 mm
21:43 -13 °C -13.5 °C 34327.3 hPa SW 17.9 km/h 38.8 km/h 94 % 20.32 mm
21:49 -13.1 °C -13.6 °C 34337.4 hPa SW 17.9 km/h 38.8 km/h 94 % 25.4 mm
21:55 -13.1 °C -13.6 °C 34327.3 hPa WSW 20.9 km/h 33.6 km/h 94 % 33.02 mm
22:03 -13.1 °C -13.6 °C 34313.7 hPa SW 26.2 km/h 36.2 km/h 94 % 33.02 mm
22:09 -13.1 °C -13.6 °C 34313.7 hPa WSW 17.9 km/h 38.8 km/h 94 % 33.02 mm
22:15 -13.1 °C -13.6 °C 34303.6 hPa WSW 23 km/h 31.1 km/h 95 % 33.02 mm
22:21 -13.2 °C -13.6 °C 34303.6 hPa SW 28.5 km/h 28.5 km/h 95 % 33.02 mm
22:33 -13.2 °C -13.7 °C 34293.4 hPa West 38.8 km/h 38.8 km/h 95 % 33.02 mm
22:39 -13.2 °C -13.6 °C 34303.6 hPa WSW 12.7 km/h 31.1 km/h 95 % 33.02 mm
22:45 -13.2 °C -13.6 °C 34293.4 hPa WSW 28.5 km/h 33.6 km/h 95 % 33.02 mm
22:51 -13.2 °C -13.6 °C 34293.4 hPa WSW 20.9 km/h 33.6 km/h 95 % 33.02 mm
22:57 -13.2 °C -13.6 °C 34293.4 hPa SW 20.9 km/h 33.6 km/h 95 % 33.02 mm
23:03 -13.1 °C -13.6 °C 34293.4 hPa SW 31.4 km/h 44.1 km/h 95 % 33.02 mm
23:09 -13.1 °C -13.6 °C 34293.4 hPa WSW 26.2 km/h 33.6 km/h 95 % 38.1 mm
23:17 -13.1 °C -13.6 °C 34293.4 hPa South 10.3 km/h 23.3 km/h 95 % 38.1 mm
23:23 -13.1 °C -13.5 °C 34279.9 hPa WSW 15.6 km/h 33.6 km/h 95 % 45.72 mm
23:29 -13.1 °C -13.5 °C 34279.9 hPa WSW 12.7 km/h 31.1 km/h 95 % 50.8 mm
23:35 -13.1 °C -13.4 °C 34269.7 hPa WSW 26.2 km/h 26.2 km/h 96 % 50.8 mm
23:41 -13 °C -13.3 °C 34269.7 hPa SW 41.7 km/h 41.7 km/h 96 % 50.8 mm
23:53 -13 °C -13.3 °C 34256.2 hPa SW 20.9 km/h 28.5 km/h 96 % 58.42 mm
23:55 -13 °C -13.3 °C 34256.2 hPa SW 15.6 km/h 31.1 km/h 96 % 58.42 mm
Meteo18
Compliments of Weather Underground - 4 mb

Script developed by  Jim McMurry - jmcmurry@mwt.net Adapted for the template by  Wim van der Kuil - Leuven-Template.eu

You find our weather info also at:

European Weather Network

Weather Underground

Equipment we use:

Weather-station
Davis Vue

Weather-program
Meteobridge

Weather-server
Raspberry PI 2 B+

Provider
1 and 1

Davis Vue

Meteobridge

Raspberry PI 2 B+

1 and 1